EW5726 Weather Reports


time (UTC)temp
F
wind
direction
speed
knots
gust
knots
rain 1hr
in
rain 24hr
in
rain mn
in
humidity
%
barometer
mb
20260506033020 39 279 2.6 6.1 0.08 0.18 0.18 89 1014.8
20260506031517 39 263 3.5 7.0 0.08 0.18 0.18 88 1014.4
20260506030020 40 244 5.2 13.0 0.06 0.16 0.16 86 1014.1
20260506024530 40 63 1.7 4.3 0.01 0.10 0.10 89 1012.8
20260506023011 40 59 1.7 4.3 0.08 0.10 0.10 90 1011.8
20260506021511 40 59 0.9 3.5 0.10 0.10 0.10 88 1012.1
20260506020008 41 59 0.0 2.6 0.10 0.10 0.10 85 1012.0
20260506014508 41 250 0.0 11.3 0.09 0.09 0.09 83 1012.1
20260506013003 47 248 7.8 20.0 0.02 0.02 0.02 66 1011.6
20260506011502 50 248 0.9 6.1 0.00 0.00 0.00 53 1010.0
20260506010001 50 245 3.5 8.7 0.00 0.00 0.00 51 1010.1
20260506004604 52 240 4.3 13.0 0.00 0.00 0.00 48 1010.1
20260506003100 53 256 6.1 10.4 0.00 0.00 0.00 47 1010.1
20260506001600 53 257 4.3 13.0 0.00 0.00 0.00 48 1010.0
20260506000058 53 235 4.3 14.8 0.00 0.00 0.00 49 1009.8
20260505234608 54 241 7.0 13.9 0.00 0.00 0.00 49 1010.0
20260505233057 51 226 7.0 13.9 0.00 0.00 0.00 53 1009.9
20260505231606 52 252 4.3 14.8 0.00 0.00 0.00 51 1009.8
20260505230055 52 244 4.3 17.4 0.00 0.00 0.00 52 1009.7
20260505224554 53 239 2.6 11.3 0.00 0.00 0.00 50 1009.4
20260505223103 53 225 4.3 15.6 0.00 0.00 0.00 49 1009.6
20260505221558 54 226 7.0 13.9 0.00 0.00 0.00 48 1009.7
20260505220052 55 244 7.0 13.9 0.00 0.00 0.00 46 1009.6
20260505214611 56 236 2.6 13.0 0.00 0.00 0.00 48 1009.7
20260505213046 55 240 6.1 12.2 0.00 0.00 0.00 49 1010.1
20260505211544 55 252 5.2 13.0 0.00 0.00 0.00 50 1010.1
20260505210044 53 261 7.0 12.2 0.00 0.00 0.00 52 1010.4
20260505204540 54 259 4.3 14.8 0.00 0.00 0.00 51 1010.5
20260505203040 51 274 4.3 16.5 0.00 0.00 0.00 55 1010.9
20260505201539 52 249 4.3 10.4 0.00 0.00 0.00 57 1010.9
20260505200044 51 248 7.0 16.5 0.00 0.00 0.00 55 1010.8
20260505194537 51 259 7.0 14.8 0.00 0.00 0.00 56 1010.9
20260505193038 51 256 5.2 13.0 0.00 0.00 0.00 53 1010.6
20260505191542 52 246 5.2 11.3 0.00 0.00 0.00 52 1010.7
20260505190039 52 254 5.2 12.2 0.00 0.00 0.00 51 1010.7
20260505184534 53 233 3.5 13.0 0.00 0.00 0.00 47 1010.7
20260505183049 53 246 1.7 10.4 0.00 0.00 0.00 44 1010.8
20260505181533 54 219 1.7 10.4 0.00 0.00 0.00 43 1010.6
20260505180030 53 228 3.5 7.8 0.00 0.00 0.00 45 1010.9
20260505174529 51 254 2.6 7.0 0.00 0.00 0.00 46 1011.3
20260505173028 52 294 0.9 7.0 0.00 0.00 0.00 45 1011.3
20260505171526 51 242 0.9 4.3 0.00 0.00 0.00 46 1011.5
20260505170026 50 239 1.7 8.7 0.00 0.00 0.00 47 1011.6
20260505164523 50 240 2.6 6.1 0.00 0.00 0.00 48 1011.7
20260505163024 49 246 0.9 7.8 0.00 0.00 0.00 48 1011.9
20260505161523 48 246 2.6 8.7 0.00 0.00 0.00 51 1011.9
20260505153022 48 252 1.7 6.1 0.00 0.00 0.00 52 1012.2
20260505151520 48 250 1.7 7.0 0.00 0.00 0.00 52 1012.1
20260505124519 44 265 0.0 2.6 0.00 0.00 0.00 52 1012.5
20260505123009 43 265 2.6 5.2 0.00 0.00 0.00 51 1012.4
20260505121511 40 262 0.0 3.5 0.00 0.00 0.00 55 1012.1
20260505120018 41 262 0.0 3.5 0.00 0.00 0.00 53 1011.9
20260505114504 41 262 0.0 3.5 0.00 0.00 0.00 53 1012.1
20260505113125 42 262 0.0 0.0 0.00 0.00 0.00 52 1012.3
20260505111556 43 262 0.0 2.6 0.00 0.00 0.00 50 1012.1
20260505101552 45 260 0.0 0.0 0.00 0.00 0.00 47 1012.0
20260505100044 46 260 0.0 0.0 0.00 0.00 0.00 46 1012.0
20260505094543 47 260 0.0 0.9 0.00 0.00 0.00 45 1011.9
20260505093050 48 260 0.0 1.7 0.00 0.00 0.00 43 1011.9
20260505091550 47 260 1.7 7.0 0.00 0.00 0.00 45 1011.8
20260505090040 48 260 0.0 0.9 0.00 0.00 0.00 42 1012.1
20260505084534 49 260 0.0 0.9 0.00 0.00 0.00 40 1012.3
20260505083032 49 260 0.0 2.6 0.00 0.00 0.00 39 1012.6
20260505081528 50 260 0.0 2.6 0.00 0.00 0.00 40 1013.1
20260505080027 51 261 0.9 4.3 0.00 0.00 0.00 37 1012.9
20260505074528 51 259 0.0 4.3 0.00 0.00 0.00 38 1013.1
20260505073027 51 265 1.7 6.1 0.00 0.00 0.00 36 1012.8
20260505071530 52 265 0.0 1.7 0.00 0.00 0.00 36 1012.5
20260505070021 52 265 1.7 6.1 0.00 0.00 0.00 37 1012.8
20260505064517 53 251 0.0 4.3 0.00 0.00 0.00 38 1012.8
20260505063016 53 252 1.7 6.1 0.00 0.00 0.00 37 1012.8
20260505061517 54 253 2.6 6.1 0.00 0.00 0.00 36 1012.8
20260505060032 54 254 2.6 5.2 0.00 0.00 0.00 37 1013.2
20260505054512 53 257 0.0 4.3 0.00 0.00 0.00 40 1013.0
20260505053008 52 255 0.0 0.9 0.00 0.00 0.00 39 1012.9
20260505051516 53 255 0.0 0.0 0.00 0.00 0.00 37 1012.9
20260505041508 55 255 0.9 3.5 0.00 0.00 0.00 33 1013.1
20260505040007 55 255 2.6 6.1 0.00 0.00 0.00 32 1013.3
20260505034505 56 257 0.9 3.5 0.00 0.00 0.00 30 1013.2